This demonstration page uses our WeatherBlox Daily Observations layout. Learn more.

Left ArrowRight Arrow

Hourly Observations for September 8, 2022

Temp ( °F °C ) Dew Point ( °F °C ) Humidity (%) Winds ( mph kmh ) Pressure ( in mb ) Visibility ( mi km ) Precip ( " mm )
12:55 am 00:55 Clear 69 20.3 62 16.5 79 79 Calm 30.06 1018 10 16 0.00 0.00
1:55 am 01:55 Clear 67 19.6 60 15.8 79 79 Calm 30.05 1018 10 16 0.00 0.00
2:55 am 02:55 Clear 65 18.6 60 15.8 84 84 Calm 30.03 1017 10 16 0.00 0.00
3:55 am 03:55 Clear 64 17.6 60 15.6 88 88 Calm 30.03 1017 10 16 0.00 0.00
4:55 am 04:55 Clear 64 17.6 60 15.6 88 88 E 3 6 30.02 1017 10 16 0.00 0.00
5:55 am 05:55 Clear 63 17.3 59 15.1 87 87 E 5 7 30.02 1017 10 16 0.00 0.00
6:55 am 06:55 Clear 61 16.2 58 14.5 90 90 ESE 3 6 30.02 1017 10 16 0.00 0.00
7:55 am 07:55 Sunny 63 17.2 59 14.8 86 86 SSE 3 6 30.03 1017 10 16 0.00 0.00
8:55 am 08:55 Sunny 66 19 60 15.5 80 80 SSE 5 7 30.01 1016 10 16 0.00 0.00
9:55 am 09:55 Sunny 73 22.5 61 16 67 67 S 8 13 29.99 1016 10 16 0.00 0.00
10:55 am 10:55 Sunny 77 25 62 16.4 59 59 S 13 20 29.95 1014 10 16 0.00 0.00
11:55 am 11:55 Sunny 82 27.8 61 16.1 49 49 S 17 28 29.93 1014 10 16 0.00 0.00
1:09 pm 13:09 Sunny 86 30 59 15 40 40 S 14 22 29.83 1010 10 16 0.00 0.00
1:55 pm 13:55 Sunny 87 30.7 58 14.7 38 38 SSE 18 30 29.86 1011 10 16 0.00 0.00
2:55 pm 14:55 Sunny 89 31.5 58 14.6 36 36 SSE 16 26 29.83 1010 10 16 0.00 0.00
3:55 pm 15:55 Sunny 89 31.9 59 14.9 36 36 SSE 15 24 29.80 1009 10 16 0.00 0.00
4:55 pm 16:55 Sunny 89 31.4 59 14.9 37 37 SSE 20 31 29.78 1008 10 16 0.00 0.00
5:55 pm 17:55 Sunny 87 30.7 58 14.7 38 38 SSE 21 33 29.76 1008 10 16 0.00 0.00
6:55 pm 18:55 Sunny 85 29.3 60 15.8 44 44 SSE 15 24 29.76 1008 10 16 0.00 0.00
7:55 pm 19:55 Clear 80 26.9 60 15.6 50 50 SSE 10 17 29.76 1008 10 16 0.00 0.00
8:55 pm 20:55 Clear 76 24.7 60 15.3 56 56 SE 8 13 29.77 1008 10 16 0.00 0.00
9:55 pm 21:55 undefined 74 23.4 61 16.2 64 64 SSE 10 17 29.78 1009 10 16 0.00 0.00
10:55 pm 22:55 Clear 74 23.1 61 15.9 64 64 SSE 10 17 29.77 1008 10 16 0.00 0.00
11:55 pm 23:55 Clear 73 22.8 61 15.9 65 65 SSE 12 19 29.77 1008 10 16 0.00 0.00

Powered by AerisWeather